Location: Arena
(42.5007°N, 9.4650°E)
Time: 21:58:42
(UTC+00:00)

Terra - Pass Details

Date: 09 April 2020
Orbit: 701 x 703 km, 98.2° (Epoch: 26 May)

Event Time Altitude Azimuth Distance (km) Brightness Sun altitude
Exits shadow 20:29:34 25° 42° (NE) 1,425 3.3 -25.8°
Drops below altitude 10° 20:32:23 10° 10° (N) 2,180 4.7 -26.2°
Sets 20:34:54 0° 358° (N) 3,103 5.8 -26.6°
